Location: Hemaruka
(51.7801°N, 111.0917°W)
Time: 10:23:28
(UTC+00:00)

NOAA 15 - Pass Details

Date: 12 December 2023
Orbit: 797 x 810 km, 98.6° (Epoch: 02 March)

Event Time Altitude Azimuth Distance (km) Brightness Sun altitude
Rises 13:28:55 0° 31° (NNE) 3,319 8.0 -16.3°
Reaches altitude 10° 13:33:24 10° 67° (ENE) 2,378 7.8 -15.7°
Maximum altitude 13:34:47 11° 83° (E) 2,308 8.0 -15.4°
Drops below altitude 10° 13:36:10 10° 98° (E) 2,373 8.4 -15.2°
Sets 13:40:36 0° 134° (SE) 3,294 9.0 -14.6°
